Regional Weather Roundup
Issued by NWS

Home | Current Version | Previous Version | Graphics & Text | Print | Product List | Glossary On
Versions: 1 2 3 4 5 6 7 8 9 10 11 12 13 14 15 16 17 18 19 20 21 22 23 24 25 26 27 28 29 30 31 32 33 34 35 36 37 38 39 40 41 42 43 44 45 46 47 48 49 50
000
ASUS44 KMEG 181210
RWRTN
TENNESSEE HOURLY STATE WEATHER ROUNDUP
NATIONAL WEATHER SERVICE MEMPHIS TN
700 AM CDT WED OCT 18 2017

TNZ002-004-019-021-049-052-054-088>092-181300-
WEST TENNESSEE

CITY           SKY/WX    TMP DP  RH WIND       PRES   REMARKS
MEMPHIS INTL   CLEAR     52  46  80 SE5       30.24S
NWS MEMPHIS      N/A     45 N/A N/A MISG        N/A
JACKSON        CLEAR     39  39 100 CALM      30.27S
SOMERVILLE     CLEAR     43  43 100 CALM      30.24S
COVINGTON      CLEAR     39  39 100 SE3       30.26R
UNION CITY     FOG       39  39 100 CALM      30.25S VSB 1/2
BOLIVAR        CLEAR     37  37 100 CALM      30.26S
PARIS          CLEAR     45  43  93 SE5       30.26R
HUNTINGDON     CLEAR     41  41 100 CALM      30.26S
LEXINGTON      CLEAR     37  37 100 CALM      30.28R
SELMER         CLEAR     39  39 100 CALM      30.27R
SAVANNAH       CLEAR     39  39 100 CALM      30.27S
$$

TNZ008-025-027-028-033-062-065-066-181300-
NORTH MIDDLE TENNESSEE

CITY           SKY/WX    TMP DP  RH WIND       PRES   REMARKS
NASHVILLE      PTCLDY    42  40  92 CALM      30.31R
PORTLAND       CLEAR     43  43 100 S5        30.29S FOG
CLARKSVILLE    CLEAR     41  39  93 SE5       30.29R
SMYRNA         CLEAR     39  39 100 CALM      30.32S
COOKEVILLE     CLEAR     34  34 100 CALM      30.31S
GALLATIN       CLEAR     39  37  93 CALM      30.33S
CROSSVILLE     CLOUDY    38  37  97 CALM      30.32S
$$

TNZ061-075-076-078-094-096-097-181300-
SOUTH MIDDLE TENNESSEE

CITY           SKY/WX    TMP DP  RH WIND       PRES   REMARKS
FAYETTEVILLE   CLEAR     43  43 100 CALM      30.29S
TULLAHOMA        N/A     37  36  93 CALM      30.30S
WINCHESTER     CLEAR     45  43  93 CALM        N/A
COLUMBIA       MOCLDY    37  37 100 CALM      30.29R FOG
SHELBYVILLE    CLEAR     41  41 100 CALM      30.30S FOG
$$

TNZ017-018-042-046-047-181300-
NORTHEAST TENNESSEE

CITY           SKY/WX    TMP DP  RH WIND       PRES   REMARKS
TRI CITIES     PTCLDY    36  36 100 N3        30.35R
ELIZABETHTON   CLEAR     39  37  93 CALM      30.36R
$$

TNZ012-013-036-069-073-074-181300-
CENTRAL EAST TENNESSEE

CITY           SKY/WX    TMP DP  RH WIND       PRES   REMARKS
KNOXVILLE      MOCLDY    40  40 100 NE5       30.33R FOG
OAK RIDGE      FOG       45  45 100 CALM      30.36R VSB 1/2
DOWNTOWN KNOXV FOG       43  43 100 CALM      30.35S VSB 0
GATLINBURG     CLEAR     39  37  93 CALM      30.35R
MORRISTOWN     CLEAR     41  39  93 CALM      30.34R
JACKSBORO      FOG       41  41 100 CALM      30.38S VSB 0
$$

TNZ083-085-099-181300-
SOUTHEAST TENNESSEE

CITY           SKY/WX    TMP DP  RH WIND       PRES   REMARKS
CHATTANOOGA    PTCLDY    43  41  93 CALM      30.34R
DAYTON         FOG       43  43 100 CALM      30.33S VSB 0
$$

SKY/WX REPORTED AS FAIR MEANS FEW OR NO CLOUDS BELOW
12 THOUSAND FEET.




USA.gov is the U.S. government's official web portal to all federal, state and local government web resources and services.